• In Czech Republic
  • List of Countries
  • For 7 days
  • Water Temperature
  • Satellite Maps
  • Weather Map
  • Weather Widgets
  • user-avatar
    Login

    Hourly Weather Winnipeg

    Today, 21 February, Wednesday

    Time Temperature Precipitation Wind Pressure Humidity
    00:00 -22°C° 0 mm 3 mps 745 mmHg 91%
    01:00 -24°C° 0 mm 4 mps 746 mmHg 91%
    02:00 -24°C° 0 mm 4 mps 746 mmHg 92%
    03:00 -24°C° 0 mm 4 mps 746 mmHg 92%
    04:00 -25°C° 0 mm 4 mps 747 mmHg 92%
    05:00 -25°C° 0 mm 4 mps 747 mmHg 92%
    06:00 -25°C° 0 mm 4 mps 748 mmHg 92%
    07:00 -25°C° 0 mm 4 mps 749 mmHg 92%
    08:00 -25°C° 0 mm 4 mps 750 mmHg 91%
    09:00 -25°C° 0 mm 4 mps 751 mmHg 90%
    10:00 -24°C° 0 mm 4 mps 751 mmHg 88%
    11:00 -23°C° 0 mm 4 mps 752 mmHg 86%
    12:00 -23°C° 0 mm 4 mps 752 mmHg 83%
    13:00 -22°C° 0 mm 4 mps 753 mmHg 83%
    14:00 -22°C° 0 mm 4 mps 753 mmHg 82%
    15:00 -20°C° 0 mm 4 mps 753 mmHg 81%
    16:00 -21°C° 0 mm 3 mps 753 mmHg 84%
    17:00 -22°C° 0 mm 3 mps 753 mmHg 87%
    18:00 -21°C° 0 mm 2 mps 754 mmHg 90%
    19:00 -23°C° 0 mm 2 mps 754 mmHg 91%
    20:00 -24°C° 0 mm 3 mps 754 mmHg 92%
    21:00 -24°C° 0 mm 3 mps 754 mmHg 93%
    22:00 -24°C° 0 mm 3 mps 754 mmHg 92%
    23:00 -24°C° 0 mm 3 mps 754 mmHg 92%

    Tomorrow, 22 February, Thursday

    Time Temperature Precipitation Wind Pressure Humidity
    00:00 -24°C° 0 mm 3 mps 754 mmHg 91%
    01:00 -24°C° 0 mm 3 mps 754 mmHg 91%
    02:00 -24°C° 0 mm 3 mps 754 mmHg 91%
    03:00 -25°C° 0 mm 4 mps 754 mmHg 91%
    04:00 -24°C° 0 mm 3 mps 754 mmHg 91%
    05:00 -24°C° 0 mm 3 mps 753 mmHg 92%
    06:00 -24°C° 0 mm 3 mps 753 mmHg 92%
    07:00 -25°C° 0 mm 4 mps 753 mmHg 91%
    08:00 -24°C° 0 mm 4 mps 752 mmHg 89%
    09:00 -23°C° 0 mm 4 mps 752 mmHg 88%
    10:00 -20°C° 0 mm 4 mps 752 mmHg 88%
    11:00 -19°C° 0 mm 4 mps 752 mmHg 88%
    12:00 -17°C° 0 mm 4 mps 752 mmHg 87%
    13:00 -16°C° 0 mm 4 mps 751 mmHg 88%
    14:00 -16°C° 0 mm 4 mps 750 mmHg 88%
    15:00 -15°C° 0 mm 4 mps 750 mmHg 88%
    16:00 -16°C° 0 mm 4 mps 749 mmHg 90%
    17:00 -16°C° 0 mm 3 mps 749 mmHg 92%
    18:00 -16°C° 0 mm 3 mps 748 mmHg 94%
    19:00 -17°C° 0 mm 3 mps 748 mmHg 94%
    20:00 -18°C° 0 mm 3 mps 748 mmHg 95%
    21:00 -18°C° 0 mm 3 mps 748 mmHg 95%
    22:00 -19°C° 0 mm 3 mps 748 mmHg 95%
    23:00 -19°C° 0 mm 3 mps 748 mmHg 94%

    Day after tomorrow, 23 February, Friday

    Time Temperature Precipitation Wind Pressure Humidity
    00:00 -21°C° 0 mm 3 mps 748 mmHg 94%
    01:00 -21°C° 0 mm 3 mps 747 mmHg 93%
    02:00 -20°C° 0 mm 2 mps 747 mmHg 92%
    03:00 -20°C° 0 mm 2 mps 747 mmHg 91%
    04:00 -21°C° 0 mm 2 mps 747 mmHg 91%
    05:00 -21°C° 0 mm 2 mps 746 mmHg 90%
    06:00 -21°C° 0 mm 2 mps 746 mmHg 90%
    07:00 -21°C° 0 mm 2 mps 746 mmHg 90%
    08:00 -21°C° 0 mm 2 mps 746 mmHg 89%
    09:00 -20°C° 0 mm 2 mps 746 mmHg 89%
    10:00 -19°C° 0 mm 2 mps 746 mmHg 88%
    11:00 -17°C° 0 mm 2 mps 746 mmHg 87%
    12:00 -16°C° 0 mm 2 mps 745 mmHg 86%
    13:00 -16°C° 0 mm 3 mps 745 mmHg 87%
    14:00 -15°C° 0 mm 3 mps 744 mmHg 88%
    15:00 -14°C° 0 mm 3 mps 744 mmHg 89%
    16:00 -15°C° 0 mm 3 mps 744 mmHg 90%
    17:00 -16°C° 0 mm 3 mps 743 mmHg 91%
    18:00 -17°C° 0 mm 3 mps 743 mmHg 92%
    19:00 -18°C° 0 mm 3 mps 743 mmHg 92%
    20:00 -18°C° 0 mm 3 mps 743 mmHg 92%
    21:00 -19°C° 0 mm 3 mps 743 mmHg 92%
    22:00 -19°C° 0 mm 3 mps 743 mmHg 91%
    23:00 -21°C° 0 mm 3 mps 742 mmHg 90%

    24 February, Saturday

    Time Temperature Precipitation Wind Pressure Humidity
    00:00 -21°C° 0 mm 3 mps 742 mmHg 90%
    01:00 -21°C° 0 mm 3 mps 742 mmHg 89%
    02:00 -22°C° 0 mm 3 mps 741 mmHg 89%
    03:00 -22°C° 0 mm 3 mps 741 mmHg 89%
    04:00 -22°C° 0 mm 3 mps 740 mmHg 89%
    05:00 -22°C° 0 mm 3 mps 739 mmHg 90%
    06:00 -22°C° 0 mm 3 mps 739 mmHg 91%
    07:00 -21°C° 0 mm 3 mps 738 mmHg 92%
    08:00 -20°C° 0 mm 4 mps 738 mmHg 92%
    09:00 -20°C° 0 mm 4 mps 737 mmHg 93%
    10:00 -18°C° 0 mm 4 mps 737 mmHg 93%
    11:00 -17°C° 0 mm 5 mps 736 mmHg 92%
    12:00 -14°C° 0 mm 5 mps 735 mmHg 92%
    13:00 -12°C° 0 mm 5 mps 734 mmHg 91%
    14:00 -11°C° 0 mm 5 mps 733 mmHg 90%
    15:00 -10°C° 0 mm 5 mps 733 mmHg 90%
    16:00 -9°C° 0 mm 4 mps 732 mmHg 91%
    17:00 -8°C° 0 mm 3 mps 732 mmHg 92%
    18:00 -8°C° 0 mm 2 mps 731 mmHg 94%
    19:00 -8°C° 0 mm 2 mps 731 mmHg 94%
    20:00 -8°C° 0 mm 2 mps 731 mmHg 95%
    21:00 -8°C° 0 mm 1 mps 730 mmHg 96%
    22:00 -9°C° 0 mm 2 mps 730 mmHg 96%
    23:00 -10°C° 0 mm 2 mps 729 mmHg 95%

    25 February, Sunday

    Time Temperature Precipitation Wind Pressure Humidity
    00:00 -12°C° 0 mm 2 mps 729 mmHg 95%
    01:00 -13°C° 0 mm 2 mps 729 mmHg 95%
    02:00 -15°C° 0 mm 3 mps 729 mmHg 95%
    03:00 -17°C° 0 mm 3 mps 728 mmHg 95%
    04:00 -18°C° 0 mm 4 mps 729 mmHg 95%
    05:00 -17°C° 0 mm 4 mps 729 mmHg 95%
    06:00 -18°C° 0 mm 5 mps 730 mmHg 95%
    07:00 -17°C° 0.1 mm 6 mps 731 mmHg 92%
    08:00 -15°C° 0.1 mm 6 mps 732 mmHg 90%
    09:00 -14°C° 0.1 mm 7 mps 733 mmHg 88%
    10:00 -14°C° 0 mm 7 mps 733 mmHg 87%
    11:00 -15°C° 0 mm 7 mps 734 mmHg 85%
    12:00 -16°C° 0 mm 8 mps 735 mmHg 84%
    13:00 -15°C° 0 mm 7 mps 736 mmHg 84%
    14:00 -15°C° 0 mm 6 mps 736 mmHg 83%
    15:00 -15°C° 0 mm 6 mps 737 mmHg 83%
    16:00 -15°C° 0 mm 5 mps 738 mmHg 85%
    17:00 -16°C° 0 mm 4 mps 738 mmHg 87%
    18:00 -16°C° 0 mm 3 mps 739 mmHg 89%
    19:00 -17°C° 0 mm 3 mps 739 mmHg 88%
    20:00 -17°C° 0 mm 2 mps 739 mmHg 88%
    21:00 -17°C° 0 mm 2 mps 739 mmHg 88%
    22:00 -18°C° 0 mm 3 mps 739 mmHg 88%
    23:00 -19°C° 0 mm 3 mps 739 mmHg 87%

    26 February, Monday

    Time Temperature Precipitation Wind Pressure Humidity
    00:00 -19°C° 0 mm 3 mps 738 mmHg 87%
    01:00 -20°C° 0 mm 4 mps 738 mmHg 87%
    02:00 -19°C° 0 mm 4 mps 737 mmHg 87%
    03:00 -20°C° 0 mm 5 mps 737 mmHg 87%
    04:00 -20°C° 0 mm 5 mps 736 mmHg 88%
    05:00 -20°C° 0 mm 6 mps 735 mmHg 89%
    06:00 -20°C° 0 mm 6 mps 735 mmHg 90%
    07:00 -18°C° 0 mm 6 mps 734 mmHg 89%
    08:00 -18°C° 0 mm 7 mps 733 mmHg 89%
    09:00 -17°C° 0 mm 7 mps 733 mmHg 89%
    10:00 -14°C° 0.1 mm 7 mps 732 mmHg 90%
    11:00 -13°C° 0.1 mm 7 mps 731 mmHg 91%
    12:00 -11°C° 0.1 mm 7 mps 731 mmHg 92%
    13:00 -8°C° 0 mm 7 mps 730 mmHg 90%
    14:00 -6°C° 0 mm 7 mps 730 mmHg 88%
    15:00 -3°C° 0 mm 7 mps 730 mmHg 87%
    16:00 -3°C° 0 mm 6 mps 730 mmHg 87%
    17:00 -2°C° 0 mm 5 mps 730 mmHg 87%
    18:00 -2°C° 0 mm 4 mps 731 mmHg 87%
    19:00 -4°C° 0 mm 4 mps 731 mmHg 86%
    20:00 -5°C° 0 mm 4 mps 732 mmHg 86%
    21:00 -7°C° 0 mm 4 mps 732 mmHg 86%
    22:00 -8°C° 0 mm 4 mps 733 mmHg 86%
    23:00 -9°C° 0 mm 4 mps 733 mmHg 87%
    Show more